Location: �clusier
(49.9361°N, 2.7869°E)
Time: 06:14:20
(UTC+00:00)

Cosmos 2016 Rocket - Pass Details

Date: 29 October 2021
Orbit: 947 x 1000 km, 83.0° (Epoch: 05 December)

Event Time Altitude Azimuth Distance (km) Brightness Sun altitude
Rises 21:19:08 0° 248° (WSW) 3,643 7.3 -44.8°
Reaches altitude 10° 21:23:03 10° 273° (W) 2,692 6.7 -45.2°
Maximum altitude 21:26:11 14° 304° (NW) 2,393 6.5 -45.6°
Drops below altitude 10° 21:29:20 10° 335° (NNW) 2,687 6.8 -46.0°
Sets 21:33:15 0° 0° (N) 3,632 7.4 -46.4°
